Weather observations for the past three days for
Morgantown Municipal-Hart Field
Imperial (Metric)
Date Time (edt) Wind (mph) Vis. (mi.) Weather Sky Cond. Temperature (ºF) Relative Humidity Wind Chill (°F) Heat Index (°F) Pressure Precipitation (in)
Air Dwpt 6 hour altimeter (in) sea level (mb) 1 hr 3 hr 6 hr
Max. Min.
16 15:53 SW 7 10.00 Partly Cloudy FEW055 SCT100 91.9 66.9 44% 95 29.86 1009.8
16 14:53 SW 15 G 21 10.00 A Few Clouds FEW100 93 66 41% 96 29.88 1010.7
16 13:53 W 10 G 16 10.00 Partly Cloudy FEW070 SCT085 93 66 93.9 79 41% 96 29.9 1010.9
16 12:53 W 7 G 17 10.00 Partly Cloudy SCT070 91.9 66 43% 95 29.91 1011.5
16 11:53 Vrbl 7 G 17 10.00 Partly Cloudy SCT049 91 66.9 45% 94 29.92 1011.9
16 10:53 W 9 G 18 10.00 Fair CLR 89.1 68 50% 93 29.93 1011.9
16 09:53 S 12 G 21 10.00 Fair CLR 84.9 69.1 59% 89 29.92 1011.7
16 08:53 S 10 G 21 10.00 Fair CLR 82 69.1 65% 85 29.89 1010.8
16 07:53 S 6 10.00 Fair CLR 79 68 79 71.1 69% 81 29.89 1010.7
16 06:53 S 8 10.00 Fair CLR 78.1 66 67% 80 29.91 1011.2
16 05:53 S 3 10.00 A Few Clouds FEW046 73.9 64 71% 29.91 1011.4
16 04:53 S 6 10.00 A Few Clouds FEW050 72 64 76% 29.89 1010.7
16 03:53 S 5 10.00 Mostly Cloudy BKN060 73 63 71% 29.9 1011.1
16 02:53 S 3 10.00 Fair CLR 71.1 63 76% 29.91 1011.5
16 01:53 SW 5 10.00 Fair CLR 75.9 62.1 91.9 73 62% 78 29.91 1011.5
16 00:53 Calm 10.00 Partly Cloudy SCT080 75.9 62.1 62% 78 29.91 1011.6
15 23:53 Calm 10.00 A Few Clouds FEW085 FEW100 79 62.1 56% 80 29.92 1011.7
15 22:53 Calm 10.00 Mostly Cloudy BKN065 BKN090 82.9 61 48% 83 29.92 1011.9
15 21:53 W 6 10.00 Partly Cloudy FEW090 SCT110 87.1 62.1 43% 88 29.92 1011.7
15 20:53 SW 5 10.00 Mostly Cloudy BKN110 89.1 61 39% 89 29.9 1011.2
15 19:53 Vrbl 6 10.00 A Few Clouds FEW110 91.9 60.1 97 91.9 34% 92 29.9 1011.2
15 18:53 W 9 G 21 10.00 A Few Clouds FEW050 93.9 59 31% 93 29.89 1010.8
15 17:53 W 8 G 22 10.00 Partly Cloudy SCT060 95 59 30% 94 29.89 1010.9
15 16:53 SW 13 G 21 10.00 Partly Cloudy SCT075 95 63 35% 96 29.91 1011.3
15 15:53 S 13 G 23 10.00 Fair CLR 93.9 62.1 35% 95 29.93 1012.1
15 14:53 SW 12 G 25 10.00 A Few Clouds FEW065 93 62.1 36% 94 29.95 1012.7
15 13:53 W 9 G 18 10.00 Fair CLR 93 63 95 73.9 37% 94 29.97 1013.6
15 12:53 S 8 G 18 10.00 Fair CLR 90 66 45% 93 30 1014.3
15 11:53 Vrbl 7 10.00 Fair CLR 86 66.9 53% 89 30.01 1014.7
15 10:53 S 8 10.00 A Few Clouds FEW037 84.9 63 48% 86 30.03 1015.5
15 09:53 S 7 10.00 A Few Clouds FEW041 82 61 49% 83 30.05 1016.2
15 08:53 SW 8 10.00 Fair CLR 77 62.1 60% 79 30.05 1016.4
15 07:53 S 6 10.00 Fair CLR 73.9 62.1 75 71.1 67% 30.05 1016.2
15 06:53 Calm 10.00 A Few Clouds FEW036 73 62.1 69% 30.04 1016.0
15 05:53 S 3 10.00 Fair CLR 71.1 63 76% 30.04 1015.9
15 04:53 SW 3 10.00 Mostly Cloudy FEW060 FEW080 BKN110 72 63 73% 30.05 1016.2
15 03:53 S 6 10.00 Overcast OVC070 72 64 76% 30.05 1016.1
15 02:53 S 3 10.00 A Few Clouds FEW050 72 64 76% 30.05 1016.2
15 01:53 SW 6 10.00 Fair CLR 73 64 90 73 74% 30.05 1016.3
15 00:53 SW 8 10.00 A Few Clouds FEW095 75.9 64 67% 78 30.04 1016.0
14 23:53 Vrbl 7 10.00 Fair CLR 79 64.9 62% 81 30.03 1015.6
14 22:53 W 7 10.00 Fair CLR 82 64.9 56% 84 30.02 1015.2
14 21:53 Calm 10.00 Fair CLR 82 64.9 56% 84 30 1014.7
14 20:53 S 3 10.00 Fair CLR 84.9 63 48% 86 29.99 1014.3
14 19:53 SW 7 10.00 Fair CLR 89.1 62.1 95 89.1 41% 89 30.02 1015.4
14 18:53 Vrbl 5 10.00 Fair CLR 91.9 59 33% 91 30.02 1015.4
14 17:53 W 8 10.00 Partly Cloudy SCT070 93 55.9 29% 91 30.03 1015.5
14 16:53 SW 14 G 20 10.00 Partly Cloudy SCT070 93 55.9 29% 91 30.03 1015.7
14 15:53 S 8 10.00 Partly Cloudy SCT075 91.9 57.9 32% 91 30.05 1016.4
14 14:53 SW 12 G 22 10.00 Partly Cloudy SCT070 93 60.1 33% 93 30.07 1016.8
14 13:53 SW 13 10.00 Partly Cloudy SCT055 91 57.9 91.9 72 33% 90 30.09 1017.8
14 12:53 S 9 10.00 Partly Cloudy SCT055 90 64 42% 91 30.12 1018.7
14 11:53 SW 9 G 20 10.00 Partly Cloudy SCT046 88 66 48% 90 30.14 1019.2
14 10:53 SW 10 10.00 Fair CLR 84.9 66.9 55% 88 30.15 1019.5
14 09:53 S 6 10.00 Fair CLR 81 66.9 62% 83 30.15 1019.7
14 08:53 SW 8 10.00 Partly Cloudy SCT090 75.9 66 72% 77 30.16 1020.1
14 07:53 Calm 10.00 A Few Clouds FEW070 72 66 73 66.9 82% 30.16 1020.1
14 06:53 Calm 9.00 A Few Clouds FEW090 70 66 87% 30.15 1019.7
14 05:53 Calm 10.00 Fair CLR 70 64.9 84% 30.13 1019.2
14 04:53 S 3 10.00 Fair CLR 69.1 64.9 87% 30.13 1019.0
14 03:53 Calm 10.00 Mostly Cloudy BKN080 72 66 82% 30.14 1019.2
14 02:53 Calm 10.00 Overcast OVC075 72 66 82% 30.14 1019.4
14 01:53 S 3 10.00 Fair CLR 71.1 66 91 71.1 84% 30.15 1019.7
14 00:53 S 3 10.00 Fair CLR 73 66 79% 30.15 1019.7
13 23:53 Calm 10.00 Fair CLR 77 66 69% 79 30.15 1019.7
13 22:53 Calm 10.00 A Few Clouds FEW080 78.1 64.9 64% 80 30.15 1019.8
13 21:53 Calm 10.00 Fair CLR 82.9 64 53% 84 30.15 1019.7
13 20:53 Vrbl 3 10.00 Fair CLR 88 62.1 42% 88 30.14 1019.4
13 19:53 Vrbl 3 10.00 Fair CLR 91 61 95 90 37% 91 30.14 1019.3
13 18:53 Calm 10.00 Overcast OVC070 91.9 61 36% 92 30.13 1019.1
13 17:53 NW 8 10.00 Mostly Cloudy BKN110 93.9 63 36% 95 30.13 1019.1
13 16:53 SW 5 10.00 Mostly Cloudy BKN070 91.9 61 36% 92 30.14 1019.2
Date Time (edt) Wind (mph) Vis. (mi.) Weather Sky Cond. Air Dwpt Max. Min. Relative Humidity Wind Chill (°F) Heat Index (°F) altimeter (in) sea level (mb) 1 hr 3 hr 6 hr
6 hour
Temperature (ºF) Pressure Precipitation (in)